AirNav   Everest Fuels
 
 1678 users online  

KCHN Wauchula Municipal Airport
Wauchula, Florida, USA

GOING TO WAUCHULA?


FAA INFORMATION EFFECTIVE 25 FEBRUARY 2021

Location

FAA Identifier: CHN
Lat/Long: 27-30-53.7000N 081-52-49.7000W
27-30.895000N 081-52.828333W
27.5149167,-81.8804722
(estimated)
Elevation: 107.8 ft. / 32.9 m (surveyed)
Variation: 04W (2000)
From city: 5 miles SW of WAUCHULA, FL
Time zone: UTC -5 (UTC -4 during Daylight Saving Time)
Zip code: 33873

Airport Operations

Airport use: Open to the public
Activation date: 11/1983
Control tower: no
ARTCC: MIAMI CENTER
FSS: SAINT PETERSBURG FLIGHT SERVICE STATION
NOTAMs facility: PIE (NOTAM-D service available)
Attendance: 1600-2000
Wind indicator: lighted
Segmented circle: yes
Lights: ACTVT REIL RWY 18 & 36; MIRL RWY 18/36 - CTAF.
Beacon: white-green (lighted land airport)
Operates sunset to sunrise.

Airport Communications

CTAF: 122.9
WX AWOS-3 at AVO (19 nm E): 118.725 (863-453-4223)
  • APCH/DEP SVC PRVDD BY MIAMI ARTCC ON FREQS 134.55/257.7 (AVON PARK RCAG).

Nearby radio navigation aids

VOR radial/distance  VOR name  Freq  Var
LALr165/29.2LAKELAND VORTAC116.0001E
PGDr015/(36.4)PUNTA GORDA VOR110.2006W
SRQr085/36.9SARASOTA VOR/DME117.0005W

Airport Services

Fuel available: 100LL
FUEL 24 HR CREDIT CARD SVC AVBL.
Parking: tiedowns
Airframe service: MINOR
Powerplant service: MINOR
Bottled oxygen: NONE
Bulk oxygen: NONE

Runway Information

Runway 18/36

Dimensions: 4005 x 75 ft. / 1221 x 23 m
Surface: asphalt, in excellent condition
Weight bearing capacity: 
PCN 7 /F/B/Y/T
Single wheel: 24.0
Double wheel: 39.0
Runway edge lights: medium intensity
RUNWAY 18  RUNWAY 36
Latitude: 27-31.224823N27-30.563918N
Longitude: 081-52.828178W081-52.827343W
Elevation: 99.3 ft.103.3 ft.
Traffic pattern: leftleft
Runway heading: 184 magnetic, 180 true004 magnetic, 360 true
Markings: nonprecision, in good conditionnonprecision, in good condition
Visual slope indicator: 4-light PAPI on left (4.00 degrees glide path)4-light PAPI on left (3.00 degrees glide path)
Runway end identifier lights: yesyes
Touchdown point: yes, no lightsyes, no lights
Obstructions: 25 ft. trees, 600 ft. from runway, 130 ft. left of centerline, 24:1 slope to clear5 ft. brush, 205 ft. from runway, 225 ft. right of centerline, 1:1 slope to clear

Airport Ownership and Management from official FAA records

Ownership: Publicly-owned
Owner: CITY OF WAUCHULA
126 S 7TH AVE.
WAUCHULA, FL 33873
Phone 863-773-3131
CTC PERSON: OLIVIA MINSHEW
Manager: WARD GRIMES
1202 MAURICE SONNY CLAVEL RD.
WAUCHULA, FL 33873
Phone (863) 773-3115
AIRPORT PHYSICAL ADDRESS: 1202 MAURICE SONNY CLAVEL ROAD.

Airport Operational Statistics

Aircraft based on the field: 24
Single engine airplanes: 18
Multi engine airplanes: 2
Helicopters: 4
    
Aircraft operations: avg 22/day *
59% transient general aviation
41% local general aviation
* for 12-month period ending 25 July 2018

Additional Remarks

FOR CD CTC MIAMI ARTCC AT 305-716-1731.

Instrument Procedures

NOTE: All procedures below are presented as PDF files. If you need a reader for these files, you should download the free Adobe Reader.

NOT FOR NAVIGATION. Please procure official charts for flight.
FAA instrument procedures published for use from 25 February 2021 at 0901Z to 25 March 2021 at 0900Z.

 
IAPs - Instrument Approach Procedures
RNAV (GPS) RWY 18   download (244KB)
RNAV (GPS) RWY 36   download (233KB)
NOTE: Special Take-Off Minimums/Departure Procedures apply   download (162KB)

Other nearby airports with instrument procedures:

KAVO - Avon ParkExecutive Airport (19 nm E)
X06 - Arcadia Municipal Airport (19 nm S)
KBOW - BartowExecutive Airport (26 nm N)
X07 - Lake Wales Municipal Airport (27 nm NE)
KSEF - Sebring Regional Airport (29 nm E)
 
Loc | Ops | Rwys | IFR | FBO | Links
Com | Nav | Svcs | Stats | Notes


 
Area around KCHN (Wauchula Municipal Airport)
 
Road maps at: MapQuest Bing Google
 
Aerial photo
WARNING: Photo may not be current or correct
Aerial photo of KCHN (Wauchula Municipal Airport)
Photo by Joshua C. Smith
Photo taken 16-Feb-2015
looking east.

Do you have a better or more recent aerial photo of Wauchula Municipal Airport that you would like to share? If so, please send us your photo.

 
Sectional chart

 
Airport diagram
CAUTION: Diagram may not be current
Diagram of KCHN (Wauchula Municipal Airport)
 
Airport distance calculator
Flying to Wauchula Municipal Airport? Find the distance to fly.

From to KCHN

Sunrise and sunset
Times for 02-Mar-2021
 Local
(UTC-5)
 Zulu
(UTC)
Morning civil twilight06:2811:28
Sunrise06:5211:52
Sunset18:2823:28
Evening civil twilight18:5123:51

Current date and time
Zulu (UTC)  02-Mar-2021 17:24:39
Local (UTC-5)  02-Mar-2021 12:24:39
 
METAR
KBOW 
26nm N 
021650Z 23006KT 10SM SCT026 BKN032 28/20 A3008
KX07 
27nm NE 
021655Z AUTO 31004KT 9SM FEW028 FEW041 SCT070 27/20 A3009 RMK A01
KLAL 
28nm N 
021650Z 26006G17KT 10SM SCT033 BKN075 28/19 A3008
KSEF 
29nm E 
021655Z AUTO 19003KT 10SM SCT029 BKN037 BKN050 26/20 A3008 RMK AO2 T02630196
KAGR 
30nm E 
021658Z AUTO M 10SM FEW027 SCT032 BKN060 29/20 A3006 RMK AO2 SLPNO P0013 T02880202 $
KPCM 
33nm NW 
021655Z AUTO 21005KT 10SM BKN034 BKN043 BKN049 27/19 A3008 RMK AO2
KGIF 
34nm N 
021653Z AUTO VRB04KT 10SM FEW029 SCT035 27/19 A3008 RMK AO2 SLP185 T02670194
KPGD 
36nm S 
021653Z 24010KT 10SM SCT023 BKN029 28/21 A3008 RMK AO2 SLP185 T02830206
KSRQ 
37nm W 
021653Z 23009KT 10SM CLR 25/21 A3006 RMK AO2 SLP179 T02500211
KTPF 
39nm NW 
021655Z AUTO 22009KT 10SM BKN100 BKN120 27/21 A3008 RMK AO2
TAF
KLAL 
28nm N 
021124Z 0212/0312 VRB03KT P6SM BKN015 TEMPO 0212/0214 4SM BR OVC010 FM021400 07007KT P6SM BKN015 BKN100 FM021800 19006KT P6SM VCSH BKN050 FM022000 20006KT P6SM SCT040 BKN100 FM030200 03004KT P6SM OVC100 FM030900 21010KT P6SM OVC015
NOTAMs
Click for the latest NOTAMs
NOTAMs are issued by the DoD/FAA and will open in a separate window not controlled by AirNav.

 

 
 

FBO, Fuel Providers, and Aircraft Ground Support

  
 Business Name 
 
 Contact 
 
 Services / Description 
 
Fuel Prices
 
Comments
  
Wauchula Municipal Airport 122.90
863-773-3115
[web site]
[email]
Airport management, Aviation fuel, Aircraft parking (ramp or tiedown), Hangar leasing / sales, Pilots lounge / snooze room, Public telephone, Computerized weather, ...
More info and photos of Wauchula Municipal Airport
Phillips 66
100LL
SS $3.59 
GUARANTEED
 
   5 read write
SS=Self service
Update Fuel Prices
 

Would you like to see your business listed on this page?

 If your business provides an interesting product or service to pilots, flight crews, aircraft, or users of the Wauchula Municipal Airport, you should consider listing it here.  To start the listing process, click on the button below
 
Add a business
 

Other Pages about Wauchula Municipal Airport

www.cityofwauchula.com/wauchula-municipal-airport
 
Update a link
 
Copyright © AirNav, LLC. All rights reserved. Privacy Policy  Contact